Wind_Speed
15 16 16 17 17 18 19 20 20 21 21 21 21 21 21 22 22 23 23 24 24 25 25 25 25 26 27 28 29 30 31 32 32 32 30 27 24 22 20 19 21 24 24 23 22 22 22 24 25 25 25 25 24 23 24 24 25 24 23 23 24 25 25 25 25 25 25 24 26 27 26 27 29 27 25 25 25 22 20 20 19 17 16 15 13
15 16 17 17 17 18 19 20 20 21 21 21 22 22 23 23 23 24 25 25 26 26 26 25 25 26 27 28 29 29 30 31 31 31 29 26 24 22 20 19 19 21 21 21 22 22 22 24 25 24 25 26 25 25 25 25 24 23 22 22 23 24 24 24 25 25 25 24 26 27 27 28 29 28 26 25 25 24 22 22 20 17 16 16 15
15 16 16 17 18 19 20 20 21 22 22 23 23 24 25 26 26 26 26 26 26 26 26 25 25 26 27 28 30 29 29 30 31 31 30 27 25 23 21 19 19 19 19 20 21 22 22 23 25 24 25 27 27 26 26 26 25 22 21 22 24 24 24 25 26 26 24 24 26 26 27 28 29 28 26 25 26 26 25 24 21 18 17 18 17
14 15 16 17 19 20 21 23 23 24 25 26 26 27 27 27 27 26 26 25 25 25 25 25 25 25 26 28 29 30 30 30 30 31 30 27 24 23 20 18 19 19 19 20 21 22 21 22 23 24 25 26 26 27 28 27 24 22 21 22 23 23 25 27 26 25 24 25 27 27 27 28 28 28 27 27 27 27 26 24 22 20 19 20 19
14 15 16 18 20 21 23 24 25 25 26 26 27 27 27 27 27 26 25 25 24 24 24 24 24 25 26 27 28 29 30 29 29 29 29 25 23 21 20 18 18 18 18 19 20 21 21 21 21 21 23 24 25 27 28 27 25 21 21 22 22 24 26 26 25 25 25 27 28 28 28 28 29 29 28 27 28 29 27 24 22 22 22 22 21
15 16 17 18 20 21 22 23 24 25 25 26 26 26 26 27 27 26 25 25 25 24 24 24 24 25 26 27 28 29 29 29 28 28 27 25 22 20 20 19 17 17 18 18 19 20 20 21 21 21 22 22 24 26 27 26 24 21 21 22 23 24 25 25 25 25 26 28 29 29 29 29 30 30 27 27 28 28 26 24 24 24 24 23 22
16 17 17 18 20 21 22 23 24 25 26 27 27 27 27 27 27 27 26 26 26 25 25 25 25 25 26 28 29 29 28 28 26 26 25 24 23 20 20 21 19 18 18 17 17 18 18 19 21 21 21 21 21 23 24 23 22 20 22 24 24 24 24 24 26 27 28 29 30 30 30 30 31 29 27 27 28 27 26 26 26 25 24 24 22
17 18 18 19 21 22 23 24 25 26 27 28 28 28 28 28 28 28 27 27 27 26 26 26 26 26 27 28 29 29 28 27 25 23 22 22 22 21 19 19 18 17 18 17 17 17 17 18 19 19 20 20 20 21 23 24 23 21 22 23 23 24 24 25 26 28 28 29 30 30 31 31 31 30 29 29 30 29 28 27 26 26 25 24 22
18 18 19 20 21 22 23 24 25 26 26 27 27 27 27 27 27 27 27 27 27 27 27 27 27 27 27 28 29 29 27 27 25 22 20 20 20 20 18 17 17 17 17 18 18 18 17 19 19 19 20 20 20 21 23 24 24 23 23 25 25 24 24 24 26 27 27 28 29 30 31 32 32 32 32 31 31 30 28 27 27 27 26 24 22
17 18 19 20 22 22 23 23 23 24 24 25 25 25 25 25 25 25 25 25 25 25 25 25 25 26 27 27 29 29 27 26 25 23 20 19 19 19 18 17 17 18 17 17 18 18 18 19 20 20 20 21 21 21 22 23 25 24 24 26 26 25 24 25 26 27 27 28 29 29 30 32 33 33 32 30 29 28 27 27 27 27 26 25 24
16 17 17 19 20 21 21 21 21 22 22 23 23 24 24 24 24 24 24 24 24 23 23 23 23 24 25 26 28 28 27 25 24 23 21 18 17 17 17 16 17 18 18 18 18 19 19 19 20 21 21 21 21 21 21 22 24 25 24 25 25 24 25 26 26 25 26 27 28 28 29 31 32 32 31 30 30 28 28 29 28 27 26 25 23
14 15 16 18 19 20 21 21 21 22 23 23 24 24 25 25 25 25 25 25 25 24 24 23 22 23 24 25 27 28 27 26 25 23 21 18 17 17 16 15 16 17 18 19 20 19 18 18 19 20 19 19 20 21 21 22 23 25 24 23 23 24 27 28 26 25 24 24 25 27 28 29 30 31 31 31 30 28 29 31 30 26 25 23 22
13 14 16 17 18 20 21 22 22 23 23 24 24 25 26 26 26 26 26 26 26 25 25 24 22 22 23 24 25 26 26 25 25 24 21 19 18 18 17 16 16 18 19 21 21 21 19 17 17 18 17 17 18 19 21 21 22 23 23 22 22 25 28 26 24 25 24 23 24 25 26 27 28 29 29 30 31 30 30 32 31 28 26 24 21
13 14 15 17 18 19 21 21 21 22 22 23 24 24 25 26 26 26 26 27 27 26 25 24 24 23 22 23 25 25 25 24 24 24 23 21 20 20 20 19 18 18 20 21 22 22 20 18 18 17 16 16 16 17 18 20 21 21 21 21 21 23 24 23 23 25 24 24 25 25 25 26 26 27 28 31 33 32 31 32 33 31 27 23 20
12 12 13 14 16 17 19 19 20 20 21 22 23 23 24 25 26 26 25 26 27 27 26 25 24 23 22 23 24 26 26 24 23 22 22 21 21 21 22 22 21 20 20 21 22 23 22 22 20 19 18 17 17 17 17 19 20 19 20 20 20 20 21 22 23 25 25 26 26 26 27 27 27 29 31 32 33 32 31 31 31 28 25 24 25
11 11 12 13 14 16 17 18 19 19 20 21 22 23 24 24 25 25 25 25 25 26 26 25 25 24 23 22 23 25 26 26 24 23 21 20 21 21 22 23 24 23 22 22 22 22 23 24 24 23 22 21 19 18 18 19 19 18 19 21 21 20 21 23 24 24 26 27 27 27 28 29 30 32 33 33 32 33 34 33 31 29 28 29 30
11 12 13 14 15 16 17 18 18 19 19 20 21 22 23 24 24 25 25 25 25 25 25 25 25 25 23 23 22 23 25 25 25 24 23 21 20 19 21 22 24 26 26 25 25 23 23 24 25 25 24 23 21 20 20 20 19 17 18 20 21 22 22 23 25 25 26 28 29 29 30 30 32 33 33 33 33 34 38 38 34 33 33 32 31
12 13 14 15 16 17 18 18 19 20 20 21 22 23 23 24 24 25 25 26 26 26 25 25 25 26 25 24 23 23 24 24 24 24 24 23 21 19 19 20 22 25 27 28 28 27 25 25 25 26 26 25 24 22 22 22 20 19 19 20 21 22 22 23 26 26 27 29 29 30 31 32 32 33 32 33 33 33 37 37 35 35 37 36 32
13 14 15 15 16 17 18 19 20 20 21 22 23 24 24 24 25 25 25 26 26 26 26 25 25 25 25 25 24 23 23 24 23 23 22 23 22 21 19 19 20 22 25 27 28 30 30 29 27 27 28 28 27 25 24 24 21 20 20 20 21 21 21 23 26 26 27 29 29 30 32 33 33 33 33 34 34 35 37 37 34 35 37 36 33
14 14 15 16 17 18 19 20 21 21 22 23 23 24 24 24 25 25 25 26 26 26 27 27 26 25 24 25 25 24 24 23 23 23 22 21 22 21 20 19 19 20 21 24 26 29 32 34 32 28 28 29 29 27 26 25 23 21 21 21 21 22 23 26 27 27 28 29 29 30 31 31 30 32 34 34 35 38 40 38 35 35 35 35 34
15 15 16 17 18 19 20 20 21 22 23 23 24 24 24 25 25 26 26 27 27 27 27 27 27 27 25 25 25 25 24 24 23 23 22 21 20 21 21 19 18 19 20 21 23 25 28 32 34 32 30 30 29 28 28 27 25 24 23 22 21 23 25 27 26 27 28 28 27 28 28 27 28 31 33 33 34 35 37 38 36 35 36 37 37
15 17 18 18 19 19 20 21 21 22 23 24 25 25 26 26 27 27 27 27 28 28 27 27 27 27 27 26 26 25 25 24 24 23 22 21 20 20 20 20 19 18 19 19 20 22 24 27 30 32 33 33 32 30 29 29 28 26 24 23 23 25 27 27 26 27 28 28 28 27 26 26 27 29 31 31 32 31 34 37 39 40 41 40 39
16 17 17 18 18 18 18 19 20 21 23 24 25 25 26 27 27 28 28 28 29 29 29 28 27 26 27 27 27 26 25 24 24 23 22 21 21 19 19 19 19 18 18 18 18 19 20 23 26 28 30 33 34 33 31 30 31 30 28 27 26 26 26 27 28 29 30 30 29 28 27 26 27 27 28 29 29 30 32 35 37 39 40 41 41
16 16 16 17 18 18 18 19 20 21 22 24 24 25 26 26 27 28 29 29 28 29 29 30 29 27 27 27 27 27 26 25 24 24 23 22 21 20 19 18 18 17 16 16 17 17 17 18 21 24 25 28 31 33 33 33 32 32 31 30 30 30 29 29 29 30 31 32 32 30 28 27 27 28 29 29 30 31 32 33 35 36 36 37 39
15 15 17 18 19 19 20 21 22 23 23 24 24 25 25 25 26 28 29 29 28 28 29 30 31 30 29 28 27 27 27 26 26 25 23 22 21 20 19 18 18 17 15 14 14 15 15 15 17 19 21 22 25 28 31 33 34 33 33 33 33 33 33 33 32 31 31 32 32 30 28 27 27 28 29 30 31 31 32 34 36 36 36 35 37
14 16 17 19 20 20 21 22 23 23 24 25 26 26 26 27 28 28 28 29 28 27 28 30 31 31 31 30 29 28 27 27 26 25 24 22 20 18 17 17 16 16 15 14 13 12 13 14 14 16 18 19 20 21 23 27 29 30 31 33 32 29 29 31 33 32 32 32 31 28 26 26 27 28 29 30 30 31 32 33 35 36 35 35 36
14 15 17 18 19 20 20 22 23 23 24 26 27 28 28 29 30 29 29 30 29 27 28 29 31 32 32 32 31 29 28 28 27 26 24 22 20 19 16 15 14 14 14 13 12 11 11 11 12 13 14 16 17 17 18 20 22 21 22 25 28 28 28 29 30 30 31 32 32 30 29 30 31 31 31 31 31 31 32 32 34 35 35 35 35
14 15 16 17 18 19 20 22 23 24 25 26 28 29 29 30 31 31 30 31 30 28 29 30 31 32 33 32 32 30 29 29 28 28 27 25 23 22 20 17 15 14 13 13 12 12 11 11 10 10 10 11 13 14 15 16 16 17 19 21 24 26 28 30 31 31 31 32 32 32 32 34 35 35 35 34 33 33 32 33 34 35 36 37 37
13 14 15 16 18 19 21 22 23 24 25 26 28 29 29 30 31 31 31 31 31 30 30 30 32 33 33 33 33 32 31 31 30 30 30 29 27 25 23 21 18 16 15 14 13 14 14 12 11 10 9 9 9 10 13 14 15 15 16 19 21 24 27 30 32 33 33 33 33 33 34 35 37 37 36 35 34 34 34 34 35 36 36 36 37
13 13 14 16 18 20 21 22 23 24 24 25 27 28 28 29 30 30 31 32 31 31 31 31 32 32 32 33 33 33 33 32 31 30 28 28 28 26 24 22 20 18 16 15 14 14 14 13 12 10 9 8 7 7 9 11 13 14 15 16 19 22 25 28 28 29 30 31 32 33 34 35 36 37 37 37 37 36 36 36 36 36 36 37 37
12 13 15 16 18 19 20 21 22 22 23 24 26 26 27 28 29 29 30 31 32 32 32 32 32 32 32 32 32 32 31 31 31 29 27 26 27 26 25 23 20 17 16 16 15 15 15 14 13 12 10 8 7 6 6 7 10 12 14 16 18 21 23 25 25 25 26 26 27 27 28 29 30 32 35 37 37 36 35 36 37 37 38 39 39
12 14 16 18 19 19 20 20 20 20 22 24 25 26 26 26 27 28 29 30 31 32 32 32 32 32 33 33 32 31 30 30 30 29 27 25 25 25 25 24 21 17 16 16 16 16 16 15 14 14 13 11 8 6 5 5 6 8 10 12 15 18 20 22 23 24 24 24 24 24 24 24 25 26 29 32 33 34 35 37 39 39 40 40 41
12 14 15 17 18 19 20 19 19 20 21 23 24 24 24 24 26 27 27 28 30 31 31 31 31 32 34 34 33 32 31 31 31 30 28 26 25 24 24 24 23 19 15 14 15 16 16 17 17 16 15 14 12 10 8 6 4 4 6 7 9 12 15 17 19 21 22 22 22 22 22 23 24 24 25 27 28 30 32 33 35 36 37 37 37
12 14 15 16 17 18 18 18 18 20 21 22 22 23 23 24 24 25 25 26 28 29 30 30 31 32 33 34 33 32 32 32 31 30 29 27 25 24 23 23 24 21 15 13 14 15 16 18 18 18 17 17 16 15 13 10 8 6 3 3 4 6 8 11 13 15 17 18 18 19 19 20 22 23 24 24 25 26 27 28 29 29 30 30 29
13 14 15 16 17 17 18 18 18 19 20 21 21 22 22 23 23 23 24 25 26 28 29 30 31 32 32 32 33 33 32 32 31 30 29 27 25 23 22 21 22 21 16 13 13 14 16 17 18 18 18 18 17 17 16 15 13 10 8 6 3 2 4 5 7 9 11 13 14 15 16 17 18 19 20 20 22 22 23 24 24 24 24 24 24
13 14 14 15 16 17 17 18 18 18 18 20 21 21 21 23 23 23 23 24 25 27 28 29 30 30 31 31 32 32 31 30 29 29 29 28 26 24 23 22 22 22 19 15 14 15 15 16 17 17 17 17 17 16 16 15 15 13 11 9 7 5 3 2 2 4 6 8 9 10 12 13 14 15 16 17 17 18 18 19 19 19 19 19 18
13 13 14 15 16 16 17 17 18 18 18 19 20 20 21 22 22 22 22 23 24 25 27 27 28 28 29 30 31 31 31 30 29 28 28 27 25 24 23 23 23 22 19 17 16 15 15 15 14 15 16 16 15 15 15 15 14 13 12 10 9 7 5 4 2 1 2 3 5 6 7 8 10 11 12 13 14 15 15 16 15 15 15 14 13
12 13 14 15 16 17 18 19 20 20 19 19 19 20 21 21 21 21 21 22 23 25 26 26 26 28 29 29 30 30 31 30 30 29 28 27 25 25 24 23 22 21 20 19 17 16 15 14 13 12 13 13 13 14 14 14 13 12 12 11 10 8 7 6 5 5 5 6 7 8 9 10 11 11 12 12 12 13 14 14 14 13 13 12 11
11 12 14 15 16 17 18 19 19 20 20 20 19 19 20 20 20 20 21 22 22 24 25 25 25 27 28 29 29 29 30 31 32 31 31 30 29 28 26 23 22 21 20 19 18 16 15 13 12 10 10 11 12 13 13 13 12 11 10 10 9 9 9 9 9 9 9 9 10 11 12 12 13 13 14 14 14 14 14 13 12 12 11 10 9
11 12 14 15 15 15 16 17 18 19 19 19 19 18 18 19 19 20 21 21 21 22 23 23 24 26 27 28 28 29 30 31 32 32 32 32 31 30 28 25 23 21 20 20 19 18 16 13 12 11 11 11 11 11 12 12 11 10 9 8 8 8 8 9 10 11 11 12 12 13 13 13 13 13 13 13 12 12 11 10 9 9 9 8 7
11 12 13 13 14 13 14 16 18 18 18 18 17 16 17 18 20 21 21 21 21 21 22 22 23 25 26 27 28 29 29 30 31 31 32 32 31 30 30 28 25 23 21 21 20 19 18 16 14 12 11 10 10 10 10 10 10 9 8 8 8 7 7 7 8 9 10 11 11 12 12 12 12 11 11 11 10 9 8 7 7 7 7 7 6
11 12 12 13 13 13 13 15 17 18 18 18 18 17 17 19 21 21 21 21 20 20 21 21 22 24 25 26 27 28 28 29 30 30 31 31 31 30 30 29 28 25 23 22 21 20 19 18 17 14 11 10 10 9 9 9 8 8 8 8 8 8 7 7 7 8 8 9 9 9 9 10 10 9 9 8 8 7 5 5 5 4 4 4 4
10 11 13 13 13 13 14 15 16 17 17 18 19 20 20 21 21 21 20 20 20 21 21 20 21 22 24 24 25 26 27 28 29 29 29 30 31 31 30 29 28 26 24 22 22 20 19 19 19 18 15 13 11 11 10 10 9 8 8 8 8 8 8 8 7 7 7 7 8 8 8 7 7 7 7 6 5 5 4 4 4 4 3 3 3
11 12 13 13 13 13 13 14 15 16 15 16 18 19 20 21 21 21 19 19 20 21 22 20 20 22 22 22 23 25 26 26 27 27 27 29 30 31 30 29 28 26 23 21 20 20 19 18 17 17 17 16 14 13 12 12 11 10 9 9 8 7 7 6 6 5 6 7 7 7 6 6 5 5 5 5 3 3 3 4 5 5 5 4 3
12 12 13 14 13 13 13 14 14 14 14 14 16 17 18 20 21 22 20 19 19 21 22 22 21 21 22 21 22 23 23 24 25 26 26 28 29 29 29 29 28 27 25 22 20 19 18 16 15 14 14 14 14 14 13 12 11 10 10 10 9 8 7 6 5 5 5 6 6 5 5 5 5 3 3 4 4 3 3 4 5 6 6 5 5
13 14 15 14 13 13 14 14 13 13 14 15 15 16 16 17 19 20 20 19 19 20 21 22 23 23 22 21 22 22 22 22 24 25 26 26 27 27 28 28 28 27 25 24 22 19 18 16 15 13 11 11 12 13 12 11 10 10 9 9 9 8 8 8 7 7 6 5 5 5 5 4 2 1 3 4 5 5 4 4 4 5 5 5 5
14 15 16 15 14 13 12 12 12 13 15 14 14 14 15 16 16 17 18 18 18 19 20 21 23 23 22 21 21 22 22 22 23 24 24 25 25 25 26 27 27 26 25 23 22 20 18 17 15 14 12 11 10 10 10 10 10 9 9 9 8 8 8 8 8 8 8 7 5 4 3 3 1 2 4 4 4 5 5 5 4 4 5 5 5
15 15 15 14 14 13 12 11 11 13 14 13 12 13 15 16 16 15 16 17 17 18 19 20 21 21 21 21 22 22 22 22 22 23 23 23 23 24 24 25 26 25 24 23 22 20 19 17 16 14 12 11 10 10 10 9 9 9 9 9 9 9 8 8 8 8 7 7 5 3 2 2 1 1 3 4 4 4 5 5 5 5 6 6 6
17 16 14 13 14 15 14 12 12 13 14 13 12 13 15 16 16 16 15 15 15 16 18 19 20 19 19 20 21 22 22 22 22 22 22 22 22 23 23 24 24 24 24 24 23 21 20 19 17 15 13 11 10 10 10 10 9 10 10 10 10 9 8 7 7 7 6 5 4 3 2 1 2 2 3 4 4 4 4 4 5 6 7 7 7
18 17 16 15 15 15 15 14 14 14 14 14 13 14 16 16 15 16 17 17 16 15 17 18 19 18 19 20 21 22 22 22 21 21 22 22 22 22 23 23 24 24 24 24 24 22 21 20 19 17 15 12 10 10 10 10 10 10 10 10 9 8 7 6 6 6 6 5 4 3 2 3 4 4 4 4 4 4 4 3 4 5 6 7 7
17 18 17 17 16 15 15 15 14 15 15 15 15 16 18 18 17 17 18 19 18 17 17 18 18 17 18 19 21 22 22 22 21 21 21 22 22 22 22 22 23 23 23 23 23 23 22 21 20 19 17 15 13 12 11 10 10 10 10 9 8 7 6 5 5 5 5 5 4 4 4 4 4 4 3 3 4 5 5 4 5 6 7 6 7
Wind_Direction
289 291 293 295 297 297 297 298 299 300 301 302 302 304 305 307 308 309 310 311 309 309 309 308 308 309 309 309 311 314 316 319 324 327 326 321 313 309 302 286 276 273 270 265 259 253 246 239 236 234 232 232 232 231 230 229 228 227 225 225 225 225 226 224 221 220 224 224 221 221 223 226 227 227 225 225 223 221 222 229 232 232 235 239 240
290 292 294 296 298 298 299 300 301 301 302 303 304 304 305 306 307 307 307 307 307 307 307 307 308 308 308 309 311 314 316 318 323 327 326 320 314 309 304 295 284 277 271 264 259 257 250 240 236 236 234 233 234 234 235 234 232 228 225 224 224 225 224 223 221 220 221 220 217 218 221 224 226 227 226 223 220 219 222 228 231 232 234 237 237
291 294 296 300 301 302 303 303 302 303 303 303 304 304 305 304 304 304 303 303 303 304 305 305 307 307 307 309 311 313 315 317 322 326 325 320 313 307 303 298 289 278 269 263 258 255 252 244 239 238 236 235 237 239 239 238 235 231 228 225 223 224 224 223 223 221 219 219 220 222 225 226 227 227 225 222 220 221 224 227 228 229 233 236 236
292 295 298 301 303 303 303 302 301 301 302 303 303 304 304 303 303 303 302 302 302 302 303 304 305 305 306 308 309 312 314 316 320 325 325 320 312 302 296 294 290 279 267 259 256 256 254 248 243 240 237 237 240 243 243 242 239 234 229 227 224 222 222 223 224 222 220 221 224 226 226 227 228 227 225 222 221 222 224 224 224 226 229 234 235
292 296 299 302 304 304 303 302 301 301 301 302 303 303 304 303 304 304 303 303 302 301 301 301 301 302 303 306 308 310 313 315 318 323 326 323 314 300 290 288 290 283 271 260 257 257 254 249 246 242 240 241 242 246 246 245 244 235 226 226 225 220 220 222 224 224 221 220 222 224 224 223 225 227 225 223 221 222 222 220 219 222 226 230 233
293 297 301 303 303 304 303 303 302 302 303 303 303 304 304 305 305 305 304 304 303 301 300 299 299 299 301 303 306 309 311 314 316 322 327 327 319 302 285 282 285 280 270 262 260 261 256 249 245 242 245 247 246 246 246 245 246 237 224 224 225 222 221 223 225 226 222 219 220 222 222 221 223 226 225 222 223 225 226 222 217 219 224 228 231
295 298 300 300 301 301 300 301 301 302 303 303 304 304 305 305 305 305 305 304 303 302 301 299 298 298 299 301 303 306 310 312 314 320 327 328 324 311 289 278 277 273 267 263 263 263 258 250 245 244 250 253 250 249 247 246 248 236 222 223 225 222 221 222 224 224 220 220 221 221 222 222 224 228 227 224 224 226 228 226 220 218 222 229 232
296 298 299 299 299 298 298 299 299 300 300 301 302 303 304 305 305 306 306 305 304 303 301 300 299 298 298 299 301 303 306 308 309 315 323 326 324 317 297 279 273 270 264 260 262 263 258 253 249 247 250 250 246 246 246 245 245 233 220 221 225 223 220 221 225 224 221 222 223 222 222 221 222 226 227 225 224 224 227 229 223 218 220 225 231
297 299 300 299 299 298 298 299 299 299 300 300 301 303 304 305 306 307 307 306 306 305 303 302 300 298 297 297 298 300 302 304 304 305 313 322 323 318 303 283 270 266 262 259 260 261 257 254 251 246 247 246 242 241 243 245 244 235 222 219 222 223 223 223 224 225 224 224 223 223 222 221 221 222 224 226 227 227 231 233 227 220 217 220 225
302 304 304 302 301 301 302 303 303 303 303 303 304 305 307 308 309 309 309 309 309 308 306 305 302 300 298 295 295 296 298 300 301 300 302 313 321 319 307 290 273 265 262 258 257 258 254 251 249 246 245 246 244 242 243 246 249 245 234 224 219 218 222 226 226 227 225 222 223 226 226 225 224 225 227 230 230 230 230 229 227 222 218 217 219
309 309 309 308 307 307 308 310 310 310 310 311 311 311 312 312 313 313 313 313 313 311 310 308 306 302 299 296 294 295 296 296 296 296 294 301 315 316 308 295 277 268 264 258 256 258 256 250 246 247 248 248 248 248 246 247 250 249 242 234 226 221 221 223 225 228 228 225 226 229 230 230 228 228 232 232 231 230 226 224 226 225 220 218 219
316 317 316 316 315 314 315 316 317 318 318 318 318 318 317 316 317 317 316 316 316 316 315 313 310 306 302 299 297 297 299 298 296 293 288 289 300 307 306 295 279 269 265 261 257 257 258 253 247 248 251 252 253 253 252 250 249 248 245 238 230 227 225 223 221 224 226 227 229 230 231 232 230 230 232 230 230 228 222 221 225 223 219 221 224
324 326 323 321 320 319 319 321 322 323 323 322 322 321 320 319 319 319 320 319 319 319 318 316 314 310 304 301 299 300 301 301 299 297 291 284 284 289 295 293 281 269 265 263 260 255 255 253 249 248 252 255 255 255 255 253 250 250 250 240 228 228 230 228 226 226 226 224 226 229 231 231 230 230 230 228 229 227 222 223 225 220 217 222 226
330 330 327 325 323 322 323 325 326 327 326 324 323 322 320 319 319 319 320 319 318 317 317 316 314 312 308 304 301 301 302 302 300 298 295 288 280 277 281 285 283 274 268 265 261 257 253 250 246 248 253 256 257 256 256 254 250 250 249 242 234 235 234 231 230 232 230 226 224 223 224 226 227 226 225 226 229 229 229 232 230 220 217 225 232
335 336 334 331 329 330 332 333 334 334 331 328 326 324 322 320 319 319 318 318 316 315 316 316 314 313 310 306 303 302 303 304 302 299 296 292 284 277 275 275 277 275 272 268 263 258 255 251 248 251 255 256 260 262 260 256 251 246 243 241 240 240 236 232 231 231 231 230 228 223 221 220 219 218 221 226 229 230 232 237 238 231 225 232 240
349 351 349 344 341 342 343 342 341 340 336 333 330 328 327 326 324 323 322 320 318 317 317 316 313 312 310 308 305 303 303 305 304 301 298 293 287 281 274 271 270 271 271 270 266 261 257 254 253 255 256 255 259 264 264 260 254 246 241 239 237 235 234 233 232 229 226 226 227 226 224 221 217 216 219 223 226 227 227 228 233 234 231 233 239
5 6 2 358 354 353 352 351 348 346 342 338 336 334 333 332 330 328 326 325 322 321 320 318 315 313 312 309 307 304 304 305 305 303 301 296 289 282 276 270 267 267 267 268 268 265 261 258 256 254 253 252 254 260 261 260 258 251 242 238 237 236 233 230 228 225 223 223 225 225 224 223 221 219 220 223 226 226 224 223 225 229 231 234 237
16 16 12 10 6 1 0 360 357 354 351 348 345 344 341 339 337 335 333 331 328 326 325 324 321 318 315 311 309 306 306 306 306 305 304 301 296 288 280 274 267 264 264 265 267 267 265 262 257 253 252 250 250 254 257 259 257 251 244 241 242 241 235 229 226 224 224 227 228 228 225 223 223 223 222 225 229 229 228 228 227 226 228 231 234
29 27 23 21 17 12 10 9 6 3 0 357 355 352 350 348 346 343 340 338 336 334 331 329 326 323 320 316 311 308 307 307 307 307 305 303 301 295 287 280 272 266 263 262 264 266 265 263 259 254 252 251 249 248 252 256 255 249 245 243 243 241 237 233 232 228 226 227 228 230 230 225 223 225 225 225 227 229 229 230 230 227 226 229 233
40 37 33 31 27 22 19 17 13 10 7 4 2 359 356 354 352 350 348 345 343 342 339 336 333 330 327 323 317 312 310 308 308 309 307 304 303 301 296 288 280 273 267 262 261 261 260 259 259 259 256 253 249 245 246 252 252 247 243 240 238 236 234 234 235 233 230 227 226 230 234 229 224 227 229 227 228 229 225 224 229 231 230 231 234
45 41 39 36 31 26 23 20 17 14 11 9 6 2 360 358 356 354 352 351 348 347 345 344 341 337 334 330 324 320 316 312 310 310 310 308 305 302 301 297 289 282 276 270 265 262 258 255 256 261 262 260 255 247 241 243 246 245 242 238 233 232 233 233 234 232 231 230 226 228 232 230 225 227 230 230 231 231 225 223 229 234 234 233 234
47 43 40 37 35 31 25 21 19 17 14 12 8 5 2 0 358 355 354 353 352 350 349 349 348 345 342 338 332 328 324 320 316 313 313 312 310 306 304 303 299 292 284 279 273 268 263 257 254 255 257 259 262 259 249 242 240 241 241 237 230 228 231 234 233 231 231 231 229 227 229 229 227 227 229 229 231 230 227 228 231 232 231 233 235
47 44 40 37 36 35 29 24 22 20 17 14 11 7 5 1 358 355 354 353 353 351 351 351 352 351 348 345 341 335 330 327 324 321 319 318 317 314 310 308 307 302 293 286 281 275 269 264 260 256 252 251 256 261 261 254 245 239 236 234 230 227 230 234 235 232 230 231 232 230 229 229 228 228 229 230 231 232 232 234 236 235 233 234 235
45 42 40 36 34 34 32 27 23 21 19 17 14 9 6 3 359 355 354 353 353 353 352 352 353 354 352 350 348 343 337 334 332 330 328 326 325 322 318 314 313 311 303 293 288 285 279 272 268 265 259 252 249 252 256 258 255 249 242 236 232 231 232 234 236 236 234 232 231 229 228 228 228 229 231 232 233 235 235 237 240 240 239 237 236
42 39 37 34 30 29 29 27 23 19 17 17 15 10 7 5 3 359 356 354 354 355 353 353 354 356 355 353 352 350 346 343 340 337 335 333 331 328 326 322 319 318 315 306 297 294 292 287 281 277 274 267 257 250 248 250 252 252 250 247 244 242 240 238 236 238 240 237 230 225 227 230 231 232 233 233 233 235 236 238 240 240 239 238 238
37 35 33 31 27 24 24 24 22 17 14 13 13 11 9 7 6 3 358 356 357 356 354 353 355 357 358 356 355 354 353 350 347 344 341 337 333 330 330 330 329 328 327 324 317 308 300 295 291 286 283 281 275 266 257 251 248 247 248 250 249 247 246 245 241 239 241 239 233 231 233 233 231 232 233 234 234 235 236 238 240 241 240 239 239
35 32 29 28 24 20 20 21 18 15 13 12 11 10 9 7 6 4 0 359 360 358 355 354 355 356 358 358 357 356 356 354 351 349 347 343 338 334 333 335 336 334 333 331 327 321 310 299 292 286 282 279 277 275 270 260 251 240 231 232 236 238 242 247 247 244 242 238 234 236 238 234 231 232 235 236 237 236 236 237 239 241 241 241 242
31 29 27 26 22 18 18 18 15 12 12 11 9 9 7 5 5 5 3 2 1 360 357 356 356 356 357 358 358 358 358 357 354 352 351 349 346 343 341 340 340 339 338 339 341 343 338 325 311 300 289 279 270 263 258 249 237 223 214 219 230 236 238 241 242 243 244 243 241 242 243 242 241 240 239 238 238 237 236 236 236 238 239 239 239
24 24 23 23 20 17 16 16 12 10 10 9 7 7 6 4 5 6 5 4 3 1 359 357 356 356 357 357 358 359 360 359 358 356 353 351 351 350 346 344 347 349 348 350 355 357 353 344 329 315 303 292 279 262 249 236 222 214 216 223 229 230 228 229 229 231 235 241 244 245 246 246 245 241 237 234 234 233 234 233 233 234 237 238 237
18 17 18 20 20 18 15 13 10 9 9 8 6 5 4 4 6 7 6 5 5 4 1 358 357 357 357 358 0 1 1 359 358 356 354 352 351 351 348 346 350 353 352 356 2 360 355 351 344 331 314 302 294 280 258 241 228 220 218 220 223 222 220 220 221 221 224 230 236 240 242 243 242 238 232 228 226 226 227 228 230 233 235 238 238
14 13 14 17 19 18 14 12 9 7 7 8 6 4 3 4 6 8 8 6 5 5 3 360 359 358 358 0 2 2 1 359 357 356 356 354 352 351 349 348 352 355 355 357 2 2 359 360 358 352 343 328 312 298 278 255 238 229 222 219 218 219 219 219 220 221 222 224 228 235 239 241 242 240 235 227 222 222 226 230 233 236 238 239 239
11 12 13 14 14 13 12 12 9 6 7 9 6 4 4 5 7 10 11 8 6 5 4 2 1 1 1 2 2 1 1 1 360 358 358 357 355 355 353 351 352 358 359 358 359 2 5 8 9 7 4 359 350 337 317 288 257 238 230 225 222 221 222 223 224 226 226 227 230 235 239 241 242 242 239 232 226 225 228 231 233 235 236 235 234
12 13 13 12 9 7 7 7 7 7 9 10 6 4 4 5 7 10 11 9 7 6 5 4 4 4 5 5 3 1 1 2 1 0 360 359 358 358 357 354 354 360 3 358 356 1 8 12 15 16 14 12 12 11 4 349 319 276 248 238 233 229 228 228 229 231 232 233 235 235 235 236 237 237 237 236 235 234 234 234 234 234 233 231 229
12 11 12 10 6 4 2 3 6 10 11 9 6 5 5 6 7 9 10 10 8 7 6 6 6 7 8 7 5 4 3 1 0 2 2 1 1 1 359 354 353 358 3 360 358 4 10 12 15 18 20 20 19 19 20 18 12 1 332 279 252 241 236 233 232 232 232 233 233 231 230 230 232 234 235 236 237 239 240 241 241 240 239 238 236
9 8 7 5 3 2 360 2 9 12 10 8 7 6 6 5 5 6 9 10 9 8 7 7 7 8 9 8 6 6 5 1 360 1 3 3 3 3 0 356 355 359 5 6 4 7 11 12 14 17 21 23 24 24 24 23 22 20 16 6 347 300 263 248 239 234 233 232 231 230 229 227 227 229 232 233 234 235 236 236 236 235 234 234 233
3 4 3 1 2 2 360 3 10 11 8 7 8 7 4 3 3 4 7 10 10 9 8 9 9 9 8 7 8 8 6 2 2 4 4 4 4 4 2 1 2 5 7 7 7 9 11 12 13 15 19 24 26 26 27 26 26 25 24 21 18 14 1 328 277 250 238 233 232 230 229 228 225 224 224 224 223 223 222 220 219 219 218 217 215
359 359 359 360 1 358 357 2 8 9 8 8 6 4 3 2 1 2 4 7 9 9 8 9 9 7 7 7 9 9 7 5 6 9 9 7 6 5 4 4 7 9 9 9 10 11 11 12 12 12 16 22 26 27 29 29 30 31 32 32 32 30 34 46 56 86 184 192 195 196 199 203 204 204 204 206 205 202 198 195 195 196 198 196 190
355 355 355 357 358 356 357 1 5 6 6 6 3 0 0 0 359 358 0 3 6 8 9 9 8 6 6 8 9 10 10 10 10 10 12 12 11 10 8 6 8 11 11 10 10 10 11 14 14 10 12 17 23 27 29 30 33 36 39 43 49 52 57 70 86 101 120 135 142 146 149 154 159 160 161 162 164 165 165 165 167 169 168 163 156
351 352 353 354 355 356 357 358 360 0 1 2 360 355 355 357 357 355 356 359 3 6 8 9 7 5 5 7 9 9 10 13 13 12 12 13 14 14 11 9 10 12 13 12 10 9 11 14 14 9 5 8 14 21 25 28 32 37 41 45 54 65 75 83 92 99 108 115 120 125 129 132 134 136 138 138 138 139 140 142 144 144 140 135 132
347 351 351 350 352 354 352 352 355 357 357 358 355 349 349 355 356 352 353 357 2 5 7 8 7 6 4 4 7 8 10 13 15 14 12 12 14 15 14 14 14 16 17 17 14 11 8 9 11 10 5 2 6 13 20 23 26 31 40 46 52 62 78 90 96 100 104 106 108 109 111 112 113 114 116 117 119 121 123 124 124 123 119 116 113
344 347 345 344 348 350 347 346 352 354 353 352 349 344 346 353 354 352 353 357 360 2 5 6 6 6 4 3 5 8 10 11 14 15 13 12 12 14 15 17 17 16 18 21 21 18 13 11 12 15 13 10 10 14 19 23 24 23 29 41 49 53 62 75 85 92 97 99 100 101 100 98 97 98 99 100 102 104 109 113 115 114 115 118 121
338 339 337 338 343 347 346 345 349 349 346 344 345 346 350 354 353 351 352 355 356 358 1 2 3 4 4 3 3 6 8 9 10 13 14 13 12 13 15 16 16 16 17 20 22 24 24 23 21 19 19 20 21 18 18 25 31 29 26 30 37 43 50 56 62 68 75 78 79 80 81 83 86 87 90 94 99 103 108 111 108 104 107 117 125
330 332 332 335 341 345 345 344 344 344 342 341 342 345 349 351 350 348 347 349 352 353 356 359 1 2 3 2 0 2 5 6 7 10 11 12 12 13 13 14 15 15 15 16 17 20 26 30 28 23 19 21 22 19 16 22 29 32 32 33 36 39 43 45 47 51 55 57 57 56 55 59 69 79 83 87 99 115 121 116 110 110 113 113 117
325 327 328 330 336 341 342 341 340 341 341 339 338 340 342 342 342 343 345 346 347 349 352 355 358 359 0 0 359 359 0 2 4 7 8 9 11 13 13 13 14 14 13 12 12 13 18 25 27 23 20 19 18 16 18 24 28 26 25 29 35 38 38 35 33 33 33 33 36 40 39 36 40 62 83 91 103 129 132 123 124 133 141 143 142
322 323 323 325 331 338 339 337 335 335 336 335 334 335 335 332 332 337 343 345 345 346 349 352 353 355 357 359 359 358 357 358 0 3 5 7 9 11 12 13 13 13 12 11 9 9 12 16 18 18 17 15 13 13 15 21 24 23 19 18 18 18 17 12 4 1 7 13 15 16 17 16 18 41 85 108 127 149 159 152 150 158 164 164 163
319 319 319 321 329 336 335 333 331 332 334 336 336 333 330 328 326 330 336 342 343 343 344 346 349 351 354 357 359 358 357 357 357 359 2 4 5 6 8 10 12 12 12 11 9 7 8 9 12 16 16 10 8 8 8 5 5 7 6 5 4 360 355 351 344 339 338 345 358 8 6 355 356 107 132 149 160 164 168 174 180 186 185 179 177
317 321 320 320 325 331 331 331 331 331 334 337 336 331 331 332 330 328 331 335 339 339 339 341 345 348 350 352 353 354 354 355 355 355 357 360 1 1 2 6 9 10 11 10 9 9 8 7 8 13 16 10 2 358 355 351 348 348 346 344 343 341 338 336 333 330 329 332 343 7 10 338 297 161 161 179 185 176 174 181 192 209 211 199 192
318 325 324 321 323 325 330 336 334 330 332 337 336 335 338 340 336 333 333 334 334 333 334 336 340 343 345 346 346 348 351 352 352 352 353 354 355 355 357 360 3 4 6 8 8 10 11 10 6 3 4 4 356 349 346 343 338 334 330 327 326 326 326 327 325 323 325 329 336 357 11 342 306 200 186 198 203 199 194 186 182 196 215 217 210
318 323 324 325 324 324 328 334 329 326 332 340 338 338 344 347 343 339 341 342 337 330 329 331 334 338 340 340 341 344 347 349 349 350 350 350 350 351 352 354 356 358 0 4 5 7 10 13 10 4 360 356 349 342 340 337 333 329 326 323 321 321 322 323 321 318 320 327 336 344 337 284 250 229 214 210 209 211 213 203 187 191 206 217 216
313 318 322 325 324 320 321 324 323 323 329 336 335 335 342 348 348 342 342 346 345 335 327 329 332 334 335 336 338 340 343 345 346 347 348 348 349 350 350 349 349 351 354 358 1 2 5 9 11 9 6 0 351 343 338 336 334 331 328 325 322 321 321 323 322 317 317 322 326 318 288 252 232 221 215 217 221 219 214 211 205 200 206 217 218
308 314 320 323 322 316 313 315 318 321 324 330 334 334 337 342 345 342 342 347 349 342 333 332 335 333 331 332 333 335 338 341 345 346 347 346 347 348 348 346 346 347 348 350 354 357 1 5 8 8 6 3 358 353 347 343 339 335 331 327 324 321 321 323 318 311 310 313 306 291 276 259 243 231 219 217 225 222 210 204 210 210 209 216 221
Height
3137 3136 3136 3135 3134 3134 3133 3132 3131 3131 3130 3129 3128 3127 3126 3125 3124 3123 3121 3120 3119 3117 3116 3115 3113 3112 3110 3108 3106 3104 3102 3100 3098 3095 3092 3090 3088 3086 3085 3084 3084 3084 3083 3084 3084 3084 3086 3087 3088 3089 3090 3091 3092 3093 3093 3095 3096 3098 3099 3100 3102 3103 3104 3105 3107 3109 3110 3111 3112 3114 3115 3115 3115 3117 3120 3122 3124 3126 3127 3129 3129 3130 3131 3132 3132
3135 3134 3134 3133 3132 3132 3131 3130 3130 3129 3128 3127 3126 3124 3123 3123 3121 3120 3119 3117 3116 3115 3113 3112 3110 3109 3107 3105 3103 3101 3099 3097 3095 3092 3090 3088 3086 3084 3083 3082 3082 3081 3081 3081 3082 3082 3083 3085 3086 3087 3087 3088 3090 3091 3091 3092 3093 3094 3096 3098 3100 3101 3102 3103 3104 3106 3107 3109 3110 3111 3111 3112 3113 3114 3117 3120 3122 3123 3125 3126 3127 3128 3129 3129 3130
3133 3132 3132 3131 3130 3129 3129 3128 3127 3127 3126 3125 3123 3122 3121 3120 3119 3118 3116 3115 3113 3112 3110 3109 3107 3106 3104 3101 3100 3098 3096 3094 3092 3089 3087 3085 3084 3082 3081 3080 3079 3079 3079 3079 3080 3080 3080 3081 3083 3084 3084 3085 3086 3088 3089 3089 3090 3093 3095 3096 3097 3098 3099 3100 3101 3103 3105 3106 3107 3108 3109 3110 3110 3112 3115 3118 3119 3120 3122 3123 3124 3125 3126 3127 3128
3131 3130 3130 3129 3128 3127 3126 3126 3125 3124 3123 3122 3121 3120 3118 3117 3116 3115 3113 3112 3110 3109 3107 3105 3104 3102 3101 3099 3097 3095 3093 3091 3089 3087 3084 3082 3081 3080 3079 3078 3077 3077 3077 3077 3078 3078 3078 3078 3080 3081 3082 3082 3084 3085 3085 3087 3089 3091 3093 3094 3095 3095 3095 3096 3098 3100 3102 3103 3104 3105 3106 3108 3108 3109 3112 3114 3116 3117 3119 3120 3120 3122 3124 3125 3125
3129 3128 3128 3127 3126 3125 3124 3123 3122 3121 3121 3119 3118 3117 3116 3114 3113 3112 3110 3109 3107 3106 3104 3103 3101 3099 3098 3096 3094 3092 3090 3088 3087 3085 3082 3080 3078 3077 3076 3075 3075 3075 3075 3074 3075 3075 3076 3076 3077 3078 3079 3080 3081 3082 3083 3084 3086 3088 3090 3091 3092 3092 3092 3093 3095 3096 3098 3100 3101 3102 3103 3105 3105 3106 3109 3111 3112 3114 3116 3117 3118 3119 3120 3122 3123
3127 3126 3126 3125 3124 3123 3122 3121 3120 3119 3118 3117 3115 3114 3113 3111 3110 3109 3107 3106 3104 3103 3101 3100 3098 3096 3095 3093 3091 3089 3087 3086 3084 3082 3080 3077 3076 3074 3074 3073 3073 3073 3072 3072 3072 3072 3073 3074 3074 3075 3076 3077 3078 3078 3079 3081 3084 3086 3087 3088 3089 3089 3090 3091 3091 3092 3094 3096 3097 3098 3099 3101 3102 3103 3106 3108 3109 3111 3113 3114 3115 3115 3117 3118 3120
3125 3124 3123 3122 3122 3121 3119 3118 3117 3116 3115 3114 3112 3111 3110 3108 3107 3105 3104 3103 3101 3100 3098 3097 3095 3093 3092 3090 3088 3086 3085 3083 3081 3079 3077 3075 3074 3072 3071 3071 3071 3070 3069 3069 3069 3070 3071 3071 3072 3072 3073 3074 3075 3075 3076 3078 3081 3084 3084 3083 3084 3087 3087 3088 3088 3088 3090 3092 3093 3095 3096 3098 3099 3100 3103 3105 3107 3108 3110 3111 3112 3113 3114 3116 3117
3122 3122 3121 3120 3120 3118 3117 3116 3115 3113 3112 3111 3109 3108 3107 3105 3104 3102 3101 3099 3098 3096 3095 3093 3092 3090 3089 3087 3085 3083 3082 3080 3079 3077 3076 3074 3072 3070 3069 3069 3068 3068 3067 3067 3067 3067 3068 3068 3069 3070 3070 3071 3072 3073 3074 3075 3077 3080 3081 3079 3081 3084 3085 3085 3085 3085 3086 3088 3090 3092 3093 3095 3096 3098 3100 3102 3103 3104 3106 3108 3109 3110 3112 3113 3114
3120 3120 3119 3118 3117 3116 3115 3113 3112 3111 3109 3108 3106 3105 3104 3102 3101 3099 3097 3096 3094 3093 3091 3090 3088 3087 3085 3083 3081 3080 3078 3077 3076 3074 3074 3072 3070 3068 3067 3066 3066 3065 3065 3065 3065 3065 3065 3065 3066 3067 3067 3068 3069 3070 3071 3072 3073 3076 3079 3078 3078 3080 3082 3082 3082 3082 3083 3085 3086 3088 3090 3091 3093 3094 3095 3098 3100 3102 3104 3106 3107 3108 3109 3111 3112
3118 3118 3117 3116 3114 3113 3112 3111 3109 3108 3106 3105 3104 3102 3101 3100 3098 3096 3094 3093 3091 3090 3088 3086 3085 3083 3082 3080 3078 3076 3075 3074 3072 3071 3070 3070 3068 3067 3065 3064 3063 3063 3063 3063 3063 3063 3063 3063 3063 3064 3065 3066 3067 3067 3068 3069 3071 3073 3075 3075 3074 3076 3078 3079 3079 3079 3080 3081 3083 3085 3086 3088 3089 3091 3093 3096 3098 3099 3101 3103 3104 3106 3106 3107 3109
3117 3116 3115 3113 3112 3110 3109 3108 3107 3106 3104 3103 3101 3100 3098 3097 3095 3094 3092 3090 3089 3087 3085 3084 3082 3080 3078 3076 3075 3073 3072 3070 3069 3068 3067 3066 3066 3065 3064 3062 3061 3061 3060 3060 3060 3060 3060 3060 3060 3061 3062 3063 3065 3066 3067 3067 3068 3070 3072 3072 3072 3072 3073 3074 3075 3077 3078 3079 3081 3082 3083 3084 3087 3088 3090 3093 3095 3096 3098 3100 3102 3102 3102 3104 3106
3115 3114 3113 3111 3110 3108 3107 3106 3105 3104 3102 3101 3099 3097 3096 3094 3093 3091 3089 3088 3086 3084 3083 3081 3079 3078 3075 3073 3072 3070 3068 3067 3066 3065 3064 3063 3063 3063 3062 3061 3059 3059 3058 3057 3057 3057 3057 3058 3059 3059 3060 3061 3063 3064 3065 3065 3065 3066 3068 3069 3069 3069 3068 3069 3070 3072 3074 3077 3078 3079 3080 3082 3084 3085 3087 3089 3091 3093 3096 3097 3098 3098 3099 3101 3104
3114 3113 3111 3110 3108 3107 3105 3104 3103 3102 3100 3099 3097 3095 3093 3092 3090 3088 3087 3085 3083 3082 3080 3078 3077 3075 3073 3071 3069 3067 3066 3064 3063 3062 3061 3060 3060 3060 3059 3058 3057 3056 3055 3055 3055 3054 3055 3056 3057 3057 3058 3058 3059 3060 3061 3061 3061 3062 3064 3066 3067 3066 3065 3066 3068 3068 3070 3073 3075 3076 3078 3079 3081 3082 3084 3086 3087 3089 3092 3093 3094 3095 3096 3098 3101
3113 3112 3110 3108 3107 3105 3104 3103 3102 3100 3098 3097 3095 3093 3091 3089 3088 3086 3085 3082 3080 3079 3077 3075 3074 3072 3070 3068 3067 3065 3063 3062 3060 3059 3058 3057 3056 3056 3056 3055 3055 3054 3053 3052 3052 3052 3053 3054 3054 3055 3055 3055 3055 3056 3057 3058 3058 3058 3059 3061 3064 3064 3064 3066 3067 3067 3068 3070 3071 3073 3075 3076 3078 3080 3081 3082 3083 3085 3088 3089 3090 3091 3093 3096 3098
3112 3111 3109 3107 3105 3104 3103 3101 3100 3099 3097 3095 3093 3091 3089 3087 3086 3084 3083 3080 3078 3076 3075 3073 3071 3069 3068 3066 3064 3062 3060 3059 3058 3056 3055 3054 3053 3053 3052 3052 3051 3050 3050 3049 3049 3049 3050 3050 3051 3052 3052 3052 3052 3053 3053 3054 3054 3055 3055 3056 3058 3061 3062 3064 3065 3066 3067 3068 3069 3070 3071 3072 3074 3075 3077 3078 3080 3082 3085 3086 3087 3089 3091 3093 3095
3111 3109 3108 3106 3105 3103 3102 3100 3099 3097 3096 3094 3092 3090 3088 3086 3084 3082 3080 3078 3076 3074 3072 3070 3068 3066 3065 3063 3061 3059 3057 3056 3054 3053 3052 3051 3050 3049 3048 3048 3047 3047 3047 3046 3046 3046 3047 3047 3047 3048 3048 3048 3049 3050 3050 3051 3051 3052 3053 3053 3054 3056 3059 3060 3062 3063 3064 3065 3066 3067 3067 3069 3070 3071 3073 3075 3077 3080 3081 3083 3084 3086 3088 3089 3090
3109 3108 3107 3105 3104 3102 3101 3099 3098 3096 3095 3093 3091 3089 3087 3085 3082 3080 3078 3076 3074 3072 3070 3067 3065 3063 3062 3061 3059 3057 3055 3053 3051 3050 3048 3047 3046 3045 3044 3044 3043 3043 3043 3043 3043 3043 3043 3043 3044 3044 3044 3045 3045 3046 3047 3047 3048 3049 3050 3051 3052 3053 3055 3057 3058 3058 3060 3061 3062 3062 3063 3065 3067 3068 3070 3073 3075 3076 3077 3078 3080 3081 3083 3085 3087
3108 3107 3105 3104 3103 3101 3100 3099 3097 3095 3094 3092 3090 3088 3086 3083 3081 3079 3076 3074 3072 3070 3068 3065 3063 3061 3059 3057 3056 3054 3052 3050 3048 3047 3045 3044 3043 3042 3041 3040 3039 3039 3039 3039 3039 3039 3039 3039 3040 3040 3040 3041 3042 3043 3043 3044 3045 3046 3047 3048 3048 3049 3052 3053 3054 3055 3056 3057 3057 3058 3059 3060 3063 3065 3067 3069 3071 3073 3074 3075 3077 3079 3080 3082 3083
3107 3106 3105 3103 3102 3101 3099 3098 3096 3095 3093 3091 3089 3087 3085 3083 3080 3078 3075 3073 3071 3068 3066 3064 3061 3059 3056 3054 3052 3051 3049 3047 3045 3044 3042 3041 3039 3038 3037 3036 3036 3035 3035 3035 3035 3035 3035 3035 3036 3036 3036 3037 3037 3039 3039 3040 3041 3043 3043 3044 3044 3046 3047 3048 3049 3051 3052 3053 3053 3054 3054 3056 3060 3061 3063 3065 3067 3068 3070 3072 3074 3075 3077 3079 3080
3107 3106 3104 3103 3102 3100 3099 3097 3096 3094 3092 3090 3088 3086 3084 3082 3080 3078 3075 3072 3070 3068 3065 3062 3060 3058 3055 3052 3050 3048 3046 3044 3043 3041 3039 3038 3036 3035 3033 3033 3032 3031 3030 3030 3031 3031 3030 3030 3031 3031 3032 3032 3033 3034 3035 3036 3038 3040 3040 3041 3042 3043 3043 3043 3044 3046 3047 3049 3051 3051 3052 3055 3058 3059 3059 3061 3063 3063 3065 3068 3070 3072 3073 3075 3076
3107 3106 3104 3103 3102 3100 3098 3097 3095 3093 3092 3090 3088 3086 3084 3082 3080 3077 3075 3072 3070 3067 3065 3062 3059 3056 3054 3051 3048 3045 3043 3042 3040 3038 3036 3035 3034 3032 3030 3029 3028 3027 3026 3026 3026 3026 3026 3026 3026 3027 3027 3028 3029 3030 3031 3032 3034 3035 3036 3037 3039 3039 3039 3039 3041 3042 3043 3046 3048 3048 3050 3052 3055 3055 3056 3058 3059 3060 3063 3065 3066 3067 3069 3071 3073
3107 3105 3104 3103 3101 3100 3098 3097 3095 3093 3091 3089 3087 3085 3083 3081 3079 3077 3074 3072 3069 3067 3064 3061 3059 3055 3053 3050 3047 3044 3041 3039 3037 3035 3033 3032 3030 3029 3027 3026 3025 3024 3023 3022 3021 3022 3022 3021 3022 3022 3022 3023 3024 3025 3026 3027 3029 3031 3032 3034 3034 3034 3034 3036 3037 3038 3039 3041 3043 3044 3046 3049 3050 3051 3053 3055 3056 3058 3060 3061 3061 3062 3064 3066 3068
3106 3105 3104 3103 3101 3100 3099 3097 3095 3093 3091 3089 3087 3085 3083 3081 3079 3076 3074 3071 3069 3066 3063 3061 3058 3055 3052 3049 3046 3043 3040 3038 3035 3033 3031 3029 3028 3026 3025 3023 3022 3020 3019 3018 3018 3017 3017 3017 3017 3017 3018 3018 3019 3020 3021 3022 3024 3026 3028 3029 3029 3030 3031 3032 3033 3034 3035 3036 3038 3040 3043 3044 3046 3048 3050 3052 3053 3055 3056 3057 3057 3059 3061 3062 3063
3106 3105 3104 3102 3101 3100 3098 3097 3095 3093 3091 3090 3088 3085 3083 3081 3078 3076 3073 3071 3068 3065 3062 3060 3057 3054 3052 3049 3046 3042 3039 3037 3034 3032 3030 3028 3026 3024 3023 3021 3019 3018 3016 3015 3014 3013 3013 3013 3013 3013 3013 3013 3014 3015 3016 3018 3019 3020 3022 3023 3024 3025 3026 3027 3029 3030 3031 3032 3034 3037 3039 3041 3043 3045 3046 3048 3050 3051 3052 3053 3054 3055 3057 3059 3059
3105 3105 3103 3102 3100 3099 3097 3096 3094 3092 3091 3089 3087 3085 3083 3081 3078 3076 3073 3070 3068 3065 3062 3059 3056 3054 3051 3048 3045 3042 3039 3036 3033 3031 3029 3027 3025 3023 3021 3019 3017 3016 3014 3013 3012 3011 3010 3010 3009 3009 3009 3009 3010 3011 3012 3013 3014 3016 3017 3018 3019 3020 3021 3023 3024 3026 3027 3029 3031 3033 3035 3037 3039 3041 3042 3044 3045 3046 3047 3048 3049 3051 3053 3054 3054
3105 3104 3103 3101 3100 3098 3097 3095 3094 3092 3090 3088 3087 3085 3083 3080 3078 3075 3072 3070 3067 3064 3061 3058 3056 3053 3050 3048 3045 3042 3039 3036 3033 3030 3028 3026 3024 3022 3021 3018 3016 3014 3013 3011 3010 3009 3008 3007 3007 3006 3006 3006 3006 3007 3008 3009 3010 3011 3013 3014 3015 3016 3016 3018 3020 3022 3023 3025 3027 3029 3031 3033 3035 3036 3038 3039 3040 3042 3043 3043 3045 3046 3048 3049 3049
3105 3104 3102 3101 3099 3098 3096 3095 3093 3092 3090 3088 3086 3084 3082 3079 3077 3075 3072 3069 3067 3064 3061 3058 3055 3053 3050 3047 3044 3041 3038 3036 3033 3030 3027 3025 3023 3021 3019 3018 3016 3014 3012 3011 3009 3007 3006 3005 3005 3004 3004 3003 3003 3004 3004 3005 3006 3007 3009 3010 3011 3012 3013 3014 3015 3018 3019 3021 3023 3025 3027 3029 3030 3031 3033 3034 3035 3037 3038 3040 3041 3042 3043 3044 3045
3105 3103 3102 3101 3100 3098 3096 3095 3093 3091 3089 3087 3085 3083 3081 3078 3076 3074 3071 3068 3066 3064 3061 3058 3055 3052 3049 3047 3044 3041 3038 3035 3032 3029 3026 3023 3021 3019 3018 3016 3015 3013 3012 3010 3008 3006 3005 3004 3003 3002 3002 3001 3001 3002 3002 3003 3003 3004 3006 3007 3008 3009 3009 3010 3012 3013 3015 3017 3019 3021 3022 3024 3025 3026 3027 3029 3030 3032 3033 3035 3037 3038 3039 3040 3041
3104 3103 3102 3101 3100 3098 3096 3094 3093 3091 3089 3087 3084 3082 3080 3078 3076 3073 3071 3068 3066 3063 3061 3058 3055 3052 3049 3046 3043 3040 3037 3034 3031 3028 3025 3023 3020 3018 3016 3015 3013 3012 3011 3009 3008 3006 3005 3003 3002 3001 3000 3000 3000 3000 3000 3001 3001 3002 3003 3004 3005 3005 3006 3007 3008 3009 3011 3013 3015 3016 3018 3019 3020 3021 3022 3023 3025 3027 3028 3030 3032 3033 3035 3036 3038
3104 3103 3102 3101 3099 3097 3096 3094 3092 3090 3088 3086 3084 3082 3080 3078 3076 3073 3071 3068 3066 3064 3061 3058 3055 3052 3049 3046 3043 3040 3037 3034 3031 3029 3026 3023 3021 3019 3017 3015 3013 3012 3010 3009 3008 3007 3005 3003 3002 3000 2999 2998 2998 2998 2999 2999 2999 3000 3000 3001 3003 3003 3004 3005 3006 3007 3008 3009 3011 3012 3014 3015 3016 3016 3017 3018 3019 3020 3022 3024 3026 3028 3030 3032 3034
3104 3103 3102 3100 3099 3097 3096 3094 3092 3090 3089 3087 3084 3082 3080 3078 3076 3074 3071 3068 3066 3064 3061 3059 3056 3053 3050 3047 3044 3041 3038 3035 3032 3030 3027 3024 3021 3019 3017 3015 3013 3012 3010 3009 3008 3007 3005 3003 3002 3000 2999 2997 2997 2997 2997 2997 2998 2998 2998 2999 3000 3001 3002 3003 3004 3005 3006 3007 3008 3010 3011 3012 3013 3014 3014 3014 3015 3016 3018 3020 3022 3024 3026 3028 3029
3103 3102 3101 3099 3098 3097 3095 3094 3092 3090 3089 3086 3084 3082 3080 3078 3076 3074 3071 3069 3066 3064 3062 3059 3056 3053 3050 3047 3044 3041 3039 3036 3033 3030 3027 3024 3022 3019 3017 3015 3013 3012 3010 3009 3008 3007 3005 3004 3002 3000 2999 2998 2996 2996 2996 2996 2996 2997 2997 2997 2998 2999 3000 3001 3002 3003 3004 3005 3006 3007 3008 3009 3010 3011 3012 3013 3014 3014 3015 3016 3017 3019 3020 3022 3023
3103 3102 3100 3099 3098 3096 3095 3094 3092 3090 3088 3086 3084 3082 3080 3078 3076 3074 3072 3069 3067 3065 3062 3059 3057 3054 3051 3048 3045 3042 3039 3036 3033 3031 3028 3025 3022 3020 3017 3015 3013 3012 3011 3010 3008 3007 3006 3004 3003 3001 3000 2998 2997 2996 2995 2995 2995 2995 2995 2996 2996 2997 2998 2999 2999 3000 3001 3002 3003 3004 3005 3006 3006 3008 3009 3010 3012 3012 3013 3014 3014 3015 3017 3018 3019
3102 3101 3100 3099 3097 3096 3095 3093 3092 3089 3088 3086 3084 3082 3080 3078 3076 3074 3073 3070 3068 3065 3062 3060 3057 3054 3051 3049 3046 3042 3039 3036 3034 3031 3028 3026 3023 3020 3018 3016 3014 3013 3012 3011 3009 3008 3006 3005 3004 3002 3001 2999 2998 2997 2996 2995 2994 2994 2994 2994 2995 2995 2996 2996 2997 2998 2999 2999 3000 3001 3002 3002 3003 3004 3006 3007 3008 3009 3010 3011 3012 3013 3014 3016 3017
3101 3100 3099 3098 3097 3096 3094 3092 3090 3089 3087 3086 3084 3082 3080 3078 3076 3075 3073 3070 3068 3065 3063 3060 3057 3055 3052 3050 3047 3043 3040 3037 3034 3031 3029 3026 3024 3022 3019 3017 3015 3013 3012 3011 3010 3008 3007 3006 3005 3004 3002 3001 3000 2998 2997 2996 2995 2995 2994 2994 2994 2994 2994 2995 2995 2996 2996 2997 2997 2998 2999 2999 3000 3001 3002 3004 3005 3006 3007 3008 3009 3010 3012 3013 3014
3101 3100 3099 3098 3096 3095 3093 3092 3090 3089 3087 3085 3084 3082 3080 3078 3076 3074 3073 3070 3068 3066 3064 3061 3058 3056 3053 3051 3048 3045 3042 3039 3035 3032 3029 3027 3024 3022 3020 3017 3015 3013 3012 3011 3010 3009 3008 3007 3006 3005 3004 3002 3001 3000 2999 2998 2997 2996 2995 2995 2995 2994 2994 2994 2995 2995 2995 2995 2996 2997 2997 2998 2998 2999 3000 3001 3002 3004 3005 3006 3007 3008 3010 3011 3011
3100 3099 3098 3097 3096 3094 3093 3091 3089 3088 3087 3085 3083 3082 3080 3078 3076 3074 3072 3070 3068 3066 3064 3062 3059 3057 3055 3052 3049 3046 3043 3040 3037 3034 3031 3028 3026 3023 3020 3018 3016 3014 3013 3011 3011 3010 3009 3008 3007 3006 3005 3004 3003 3002 3001 3000 2999 2998 2997 2997 2996 2996 2996 2996 2996 2996 2996 2996 2996 2996 2997 2997 2998 2998 2999 3000 3001 3002 3004 3005 3006 3007 3009 3010 3011
3100 3099 3097 3096 3095 3093 3092 3090 3088 3087 3086 3084 3083 3081 3079 3078 3076 3074 3072 3070 3068 3066 3064 3062 3060 3058 3055 3052 3050 3047 3044 3041 3038 3035 3032 3030 3027 3024 3022 3019 3017 3016 3014 3012 3011 3010 3010 3009 3008 3007 3006 3005 3004 3003 3003 3002 3001 3000 3000 2999 2998 2998 2998 2997 2997 2997 2997 2997 2997 2997 2997 2998 2998 2999 3000 3001 3002 3003 3004 3005 3006 3007 3008 3010 3011
3099 3098 3097 3095 3094 3092 3090 3089 3088 3086 3085 3084 3082 3080 3079 3077 3075 3074 3072 3070 3068 3066 3064 3062 3060 3058 3055 3053 3051 3048 3045 3042 3039 3035 3033 3030 3028 3025 3023 3021 3019 3017 3015 3014 3013 3011 3010 3009 3009 3008 3007 3007 3006 3005 3004 3004 3003 3002 3002 3001 3001 3000 3000 2999 2999 2999 2999 2999 2999 2999 2999 2999 3000 3000 3001 3002 3003 3004 3005 3006 3007 3008 3009 3010 3011
3099 3097 3096 3095 3093 3092 3090 3089 3088 3086 3085 3083 3082 3080 3078 3077 3075 3073 3072 3070 3068 3066 3064 3062 3060 3058 3055 3053 3051 3049 3046 3043 3040 3037 3034 3032 3029 3027 3024 3022 3020 3018 3016 3015 3014 3013 3011 3010 3009 3009 3008 3008 3007 3007 3006 3006 3005 3004 3004 3003 3003 3003 3002 3001 3001 3001 3001 3001 3001 3001 3001 3001 3002 3002 3003 3004 3004 3005 3006 3007 3008 3009 3010 3011 3012
3098 3097 3095 3094 3093 3091 3090 3088 3087 3086 3084 3083 3081 3080 3078 3076 3074 3073 3071 3069 3067 3066 3064 3062 3060 3058 3056 3053 3051 3049 3046 3044 3042 3039 3036 3033 3031 3028 3026 3023 3021 3020 3018 3016 3015 3014 3013 3011 3010 3010 3009 3009 3008 3008 3008 3007 3007 3006 3006 3005 3005 3005 3004 3004 3003 3003 3003 3003 3003 3003 3003 3003 3004 3004 3004 3005 3006 3007 3008 3008 3009 3010 3011 3012 3013
3097 3096 3095 3093 3092 3091 3089 3088 3086 3085 3083 3082 3080 3079 3077 3075 3073 3072 3070 3068 3067 3065 3064 3062 3060 3058 3056 3054 3051 3049 3047 3045 3043 3041 3038 3035 3033 3030 3027 3025 3023 3021 3019 3018 3017 3015 3014 3013 3012 3011 3010 3009 3009 3009 3008 3008 3008 3008 3007 3007 3007 3006 3006 3006 3006 3005 3005 3005 3005 3005 3005 3005 3005 3006 3006 3007 3007 3008 3009 3010 3010 3011 3011 3012 3014
3096 3095 3094 3092 3091 3090 3089 3087 3086 3084 3083 3081 3079 3078 3076 3074 3073 3071 3070 3068 3066 3065 3063 3062 3060 3058 3056 3054 3051 3050 3048 3046 3044 3042 3039 3037 3034 3032 3029 3027 3025 3023 3021 3020 3018 3017 3016 3015 3014 3013 3012 3011 3010 3010 3009 3009 3009 3009 3008 3008 3008 3008 3007 3007 3007 3007 3007 3006 3006 3007 3007 3007 3007 3007 3008 3008 3009 3009 3010 3011 3012 3012 3012 3013 3014
3094 3094 3093 3091 3090 3089 3088 3086 3085 3084 3082 3080 3078 3077 3075 3073 3072 3071 3069 3068 3066 3064 3063 3061 3059 3057 3055 3053 3052 3050 3048 3047 3045 3043 3040 3038 3036 3033 3031 3028 3026 3024 3023 3021 3020 3019 3018 3017 3016 3015 3014 3013 3012 3011 3011 3010 3010 3009 3009 3009 3009 3009 3008 3008 3007 3007 3007 3008 3008 3007 3007 3008 3008 3008 3009 3010 3010 3010 3011 3012 3013 3013 3013 3014 3014
3093 3093 3092 3090 3089 3088 3087 3085 3084 3082 3081 3080 3078 3077 3075 3073 3071 3070 3069 3067 3065 3064 3062 3060 3059 3057 3055 3054 3052 3050 3049 3047 3045 3043 3041 3039 3037 3035 3033 3030 3028 3026 3024 3023 3021 3020 3019 3018 3017 3016 3015 3015 3014 3013 3012 3012 3011 3010 3010 3010 3009 3009 3009 3009 3008 3008 3008 3008 3008 3008 3008 3008 3009 3009 3010 3010 3011 3011 3012 3012 3013 3013 3014 3014 3015
3092 3091 3090 3089 3088 3087 3085 3084 3083 3081 3080 3079 3078 3076 3075 3073 3071 3069 3068 3066 3065 3063 3061 3060 3058 3056 3055 3053 3052 3050 3049 3047 3045 3044 3042 3040 3038 3036 3034 3032 3029 3027 3025 3024 3022 3021 3020 3019 3018 3017 3016 3016 3015 3014 3013 3013 3012 3011 3011 3010 3010 3010 3009 3009 3009 3009 3009 3008 3009 3009 3009 3009 3009 3009 3010 3010 3011 3011 3012 3012 3013 3013 3014 3014 3015
3091 3090 3089 3088 3087 3085 3084 3083 3082 3080 3079 3078 3077 3075 3074 3073 3071 3069 3068 3066 3065 3063 3061 3059 3057 3056 3054 3052 3051 3050 3048 3047 3045 3043 3042 3040 3038 3036 3035 3033 3031 3029 3027 3025 3023 3022 3020 3019 3019 3018 3017 3016 3016 3015 3014 3013 3013 3012 3011 3011 3010 3010 3009 3009 3008 3008 3008 3009 3009 3009 3009 3009 3009 3009 3010 3010 3011 3012 3012 3012 3013 3013 3013 3014 3014
3089 3089 3088 3086 3085 3084 3082 3082 3081 3079 3078 3077 3076 3074 3073 3072 3070 3069 3067 3066 3064 3063 3061 3059 3057 3056 3054 3052 3050 3049 3048 3046 3045 3043 3042 3040 3039 3037 3035 3033 3032 3030 3028 3026 3024 3023 3021 3020 3019 3018 3017 3017 3016 3015 3014 3014 3013 3012 3012 3011 3011 3010 3010 3009 3008 3008 3008 3008 3009 3009 3009 3009 3009 3009 3010 3010 3011 3011 3012 3012 3013 3013 3013 3013 3014
3087 3087 3086 3085 3083 3082 3081 3080 3079 3078 3077 3076 3075 3073 3072 3071 3069 3068 3066 3065 3064 3062 3060 3058 3057 3056 3054 3052 3050 3049 3047 3046 3044 3043 3042 3040 3039 3037 3035 3033 3032 3030 3029 3027 3025 3023 3022 3020 3019 3018 3017 3016 3016 3015 3014 3013 3013 3012 3011 3011 3010 3010 3009 3009 3008 3008 3008 3008 3008 3009 3009 3009 3009 3009 3010 3010 3010 3011 3011 3012 3012 3013 3013 3013 3013
3085 3085 3084 3083 3082 3081 3079 3079 3078 3077 3076 3075 3073 3072 3071 3070 3068 3067 3065 3064 3063 3061 3059 3058 3056 3055 3053 3052 3050 3048 3047 3045 3044 3042 3041 3039 3038 3036 3035 3033 3031 3030 3029 3027 3025 3024 3022 3021 3019 3018 3017 3016 3015 3014 3013 3013 3012 3011 3011 3010 3010 3009 3009 3009 3008 3008 3008 3008 3008 3008 3008 3009 3009 3009 3009 3010 3010 3010 3011 3012 3012 3012 3012 3012 3013
3084 3083 3082 3081 3080 3079 3078 3077 3076 3075 3074 3073 3072 3070 3069 3068 3067 3066 3064 3063 3061 3060 3059 3057 3056 3054 3053 3051 3049 3048 3046 3045 3043 3042 3040 3039 3037 3036 3035 3033 3031 3030 3028 3027 3025 3024 3022 3021 3020 3018 3017 3016 3015 3014 3013 3012 3011 3011 3010 3010 3009 3009 3009 3009 3008 3008 3008 3008 3008 3008 3008 3008 3008 3009 3009 3009 3010 3010 3010 3011 3011 3011 3011 3011 3012